Puget — AEQW — position and weather

sailwx.info

Track history (hours):
 
Tides and Currents Weather Stations Pressure Air Temp Water Temp Dewpoint Dewpoint Depression Visibility Wind Speed Wind Dir Waves Ship Positions

Puget

Last reported at 2014-Nov-20 17:33 UTC. Time now 2014-Nov-22 10:35 UTC.
Position N 47°16' W 122°26'.

Length 20 m; draft 0.2 m.

Type: Ship. MMSI: 369970510.

Date/timePositionNaut miles runAvg speedWind from/ knotsBaromVisibWave heightAir tempDewpointWater temp
2014-Nov-20 17:33N 47°16' W 122°26'0 0.4
2014-Nov-20 16:34N 47°15' W 122°26'2 0.1
2014-Nov-19 23:09N 47°17' W 122°25'1 0.9
2014-Nov-19 22:33N 47°16' W 122°24'1 0.7
2014-Nov-19 21:29N 47°17' W 122°23'0 0.1
2014-Nov-19 20:32N 47°17' W 122°23'2 1.8
2014-Nov-19 19:33N 47°18' W 122°26'3 3.0
2014-Nov-19 18:33N 47°21' W 122°27'3 2.6
2014-Nov-19 17:33N 47°21' W 122°23'4 0.2
2014-Nov-19 00:33N 47°17' W 122°25'2 1.9
2014-Nov-18 23:33N 47°15' W 122°26'5 4.5
2014-Nov-18 22:33N 47°19' W 122°30'5 4.9
2014-Nov-18 21:33N 47°15' W 122°34'7 6.4
2014-Nov-18 20:30N 47°09' W 122°38'0 0.0
2014-Nov-18 19:33N 47°09' W 122°38'7 7.1
2014-Nov-18 18:34N 47°15' W 122°34'4 4.3
2014-Nov-18 17:33N 47°18' W 122°29'3 3.1
2014-Nov-18 16:33N 47°17' W 122°25'0 0.0
2014-Nov-17 23:33N 47°17' W 122°25'2 1.9
2014-Nov-17 22:33N 47°18' W 122°27'6 6.0
2014-Nov-17 21:33N 47°24' W 122°24'8 7.5
2014-Nov-17 20:33N 47°31' W 122°28'6 6.1
2014-Nov-17 19:33N 47°26' W 122°32'7 6.9
2014-Nov-17 18:33N 47°19' W 122°31'2 1.9
2014-Nov-17 17:33N 47°17' W 122°29'  
2014-Nov-14 01:30N 47°17' W 122°25'7 7.5
2014-Nov-14 00:33N 47°24' W 122°22'10 9.5
2014-Nov-13 23:33N 47°33' W 122°25'7 7.0
2014-Nov-13 22:33N 47°40' W 122°24'0 0.0
2014-Nov-13 21:33N 47°40' W 122°24'7 7.5
2014-Nov-13 20:34N 47°47' W 122°24'10 9.9
2014-Nov-13 19:33N 47°57' W 122°21'8 7.7
2014-Nov-13 18:34N 48°04' W 122°26'13 9.2
2014-Nov-13 17:10N 48°16' W 122°32'5 7.0
2014-Nov-13 16:32N 48°20' W 122°32'3 0.2
2014-Nov-12 21:32N 48°23' W 122°30'0 0.0
2014-Nov-12 17:20N 48°23' W 122°30'0 0.3
2014-Nov-12 16:30N 48°24' W 122°30'1 0.0
2014-Nov-11 20:33N 48°24' W 122°30'7 7.1
2014-Nov-11 19:33N 48°31' W 122°34'0 0.4
2014-Nov-11 18:33N 48°31' W 122°34'7 6.8
2014-Nov-11 17:33N 48°25' W 122°30'0 0.1
2014-Nov-11 16:33N 48°25' W 122°30'1 0.1
2014-Nov-11 00:11N 48°24' W 122°30'5 2.9
2014-Nov-10 22:28N 48°19' W 122°30'9 6.6
2014-Nov-10 21:08N 48°10' W 122°32'9 3.3
2014-Nov-10 18:33N 48°19' W 122°30'  
Track history (hours):
 
Tides and Currents Weather Stations Pressure Air Temp Water Temp Dewpoint Dewpoint Depression Visibility Wind Speed Wind Dir Waves Ship Positions

Puget

Last reported at 2014-Nov-20 17:33 UTC. Time now 2014-Nov-22 10:35 UTC.
Position N 47°16' W 122°26'.

Length 20 m; draft 0.2 m.

Type: Ship. MMSI: 369970510.

Date/timePositionNaut miles runAvg speedWind from/ knotsBaromVisibWave heightAir tempDewpointWater temp
2014-Nov-20 17:33N 47°16' W 122°26'0 0.4
2014-Nov-20 16:34N 47°15' W 122°26'2 0.1
2014-Nov-19 23:09N 47°17' W 122°25'1 0.9
2014-Nov-19 22:33N 47°16' W 122°24'1 0.7
2014-Nov-19 21:29N 47°17' W 122°23'0 0.1
2014-Nov-19 20:32N 47°17' W 122°23'2 1.8
2014-Nov-19 19:33N 47°18' W 122°26'3 3.0
2014-Nov-19 18:33N 47°21' W 122°27'3 2.6
2014-Nov-19 17:33N 47°21' W 122°23'4 0.2
2014-Nov-19 00:33N 47°17' W 122°25'2 1.9
2014-Nov-18 23:33N 47°15' W 122°26'5 4.5
2014-Nov-18 22:33N 47°19' W 122°30'5 4.9
2014-Nov-18 21:33N 47°15' W 122°34'7 6.4
2014-Nov-18 20:30N 47°09' W 122°38'0 0.0
2014-Nov-18 19:33N 47°09' W 122°38'7 7.1
2014-Nov-18 18:34N 47°15' W 122°34'4 4.3
2014-Nov-18 17:33N 47°18' W 122°29'3 3.1
2014-Nov-18 16:33N 47°17' W 122°25'0 0.0
2014-Nov-17 23:33N 47°17' W 122°25'2 1.9
2014-Nov-17 22:33N 47°18' W 122°27'6 6.0
2014-Nov-17 21:33N 47°24' W 122°24'8 7.5
2014-Nov-17 20:33N 47°31' W 122°28'6 6.1
2014-Nov-17 19:33N 47°26' W 122°32'7 6.9
2014-Nov-17 18:33N 47°19' W 122°31'2 1.9
2014-Nov-17 17:33N 47°17' W 122°29'  
2014-Nov-14 01:30N 47°17' W 122°25'7 7.5
2014-Nov-14 00:33N 47°24' W 122°22'10 9.5
2014-Nov-13 23:33N 47°33' W 122°25'7 7.0
2014-Nov-13 22:33N 47°40' W 122°24'0 0.0
2014-Nov-13 21:33N 47°40' W 122°24'7 7.5
2014-Nov-13 20:34N 47°47' W 122°24'10 9.9
2014-Nov-13 19:33N 47°57' W 122°21'8 7.7
2014-Nov-13 18:34N 48°04' W 122°26'13 9.2
2014-Nov-13 17:10N 48°16' W 122°32'5 7.0
2014-Nov-13 16:32N 48°20' W 122°32'3 0.2
2014-Nov-12 21:32N 48°23' W 122°30'0 0.0
2014-Nov-12 17:20N 48°23' W 122°30'0 0.3
2014-Nov-12 16:30N 48°24' W 122°30'1 0.0
2014-Nov-11 20:33N 48°24' W 122°30'7 7.1
2014-Nov-11 19:33N 48°31' W 122°34'0 0.4
2014-Nov-11 18:33N 48°31' W 122°34'7 6.8
2014-Nov-11 17:33N 48°25' W 122°30'0 0.1
2014-Nov-11 16:33N 48°25' W 122°30'1 0.1
2014-Nov-11 00:11N 48°24' W 122°30'5 2.9
2014-Nov-10 22:28N 48°19' W 122°30'9 6.6
2014-Nov-10 21:08N 48°10' W 122°32'9 3.3
2014-Nov-10 18:33N 48°19' W 122°30'  

Dump ship's entire track history